Location: Newark
(5.8900°S, 42.6378°W)
Time: 04:08:08
(UTC+00:00)

Vanguard 1 Rocket - Pass Details

Date: 23 October 2019
Orbit: 651 x 4225 km, 34.3° (Epoch: 16 November)

Event Time Altitude Azimuth Distance (km) Brightness Sun altitude
Rises 16:46:19 0° 326° (NNW) 7,474 12.2 57.1°
Reaches altitude 10° 16:53:17 10° 340° (NNW) 6,915 12.1 55.4°
Maximum altitude 17:11:30 24° 27° (NNE) 6,253 11.7 50.9°
Drops below altitude 10° 17:29:15 10° 74° (ENE) 6,898 11.6 46.6°
Sets 17:35:53 0° 86° (E) 7,476 11.6 45.0°
